Location: アルンシュタイン
(50.0000°N, 10.0000°E)
Time: 01:18:42
(UTC+02:00)

Vanguard 1 - Pass Details

Date: 20 September 2024
Orbit: 648 x 3825 km, 34.3° (Epoch: 11 October)

Event Time Altitude Azimuth Distance (km) Brightness Sun altitude
Rises 16:56:07 0° 262° (W) 4,957 14.9 21.8°
Reaches altitude 10° 17:01:42 10° 241° (WSW) 3,294 15.0 21.0°
Maximum altitude 17:05:23 14° 212° (SSW) 2,581 13.4 20.5°
Drops below altitude 10° 17:08:23 10° 182° (S) 2,560 12.6 20.1°
Sets 17:11:45 0° 155° (SSE) 3,201 12.7 19.6°
